{"data":{"norad_id":64096,"intl_designator":"2025-110A","name":"STARLINK-34178","alt_names":[],"object_type":"PAYLOAD","status":"ACTIVE","operator":null,"country":"US","launch_date":"2025-05-23","launch_site_code":"AFWTR","launch_vehicle":null,"mission":null,"orbit_class":"UNKNOWN","rcs_meters":null,"size_class":null,"mass_kg":null,"dimensions":null,"purposes":["comms"],"wikipedia_slug":null,"has_3d_model":false,"image_url":null,"decayed_at":null,"tle_current":{"epoch":"2026-05-25T00:07:28.580160Z","epoch_age_seconds":74036,"freshness":"FRESH","line1":"1 64096U 25110A   26145.00519190  .00008308  00000+0  29229-3 0  9992","line2":"2 64096  53.1615  32.5010 0001129  88.3740 271.7390 15.30201613 57566","mean_motion":15.30201613,"eccentricity":0.0001129,"inclination_deg":53.1615,"raan_deg":32.501,"arg_perigee_deg":88.374,"mean_anomaly_deg":271.739,"bstar":0.00029229,"rev_number":5756,"period_min":94.105246509108,"perigee_km":474.4365103914,"apogee_km":475.9839962012,"semimajor_km":6853.3472532963,"source":"CELESTRAK","updated_at":"2026-05-25T13:38:20.263064Z"}}}